Chatham, MA

5:13 PM EDT on May 28, 2017 (GMT -0400)
Chatham Municipal

Weather History for KCQX - October, 2013

Change the Weather History Date:

Monday, October 7, 2013

  Actual Average Record
Temperature  
Mean Temperature 67 °F -  
Max Temperature 73 °F 61 °F 75 °F (2005)
Min Temperature 62 °F 47 °F 35 °F (1998)
Cooling Degree Days 2    
Growing Degree Days 17 (Base 50)    
Moisture  
Dew Point 62 °F    
Average Humidity 89    
Maximum Humidity 100    
Minimum Humidity 73    
Precipitation  
Precipitation 0.10 in - - ()
Sea Level Pressure  
Sea Level Pressure 30.02 in    
Wind  
Wind Speed 9 mph (SSE)    
Max Wind Speed 15 mph    
Max Gust Speed 24 mph    
Visibility 7 miles    
Events Rain    
Averages and records for this station are not official NWS values.
T = Trace of Precipitation, MM = Missing Value Source: NWS Daily Summary

Daily Weather History Graph

Daily Weather History Graph

Search for Another Location

Airport or City:

Trip Planner

Search our weather history database for the weather conditions in past years. The results will help you decide how hot, cold, wet, or windy it might be!

Date:

Astronomy

Oct. 07, 2013 Rise Set
Actual Time 6:43 AM EDT 6:11 PM EDT
Civil Twilight 6:15 AM EDT 6:38 PM EDT
Nautical Twilight 5:43 AM EDT 7:11 PM EDT
Astronomical Twilight 5:11 AM EDT 7:43 PM EDT
Moon 9:32 AM EDT (10/7) 7:50 PM EDT (10/7)
Length of Visible Light 12h 23m
Length of Day
11h 27m
Waxing Crescent, 8% of the Moon is Illuminated
Oct 7
Waxing Crescent
Oct 11
First Quarter
Oct 18
Full
Oct 26
Last Quarter
Nov 3
New

Hourly Weather History & Observations

Time (EDT) Temp. Dew Point Humidity Pressure Visibility Wind Dir Wind Speed Gust Speed Precip Events Conditions
12:52 AM 62.1 °F 57.0 °F 84% 30.14 in 10.0 mi SSE 6.9 mph 17.3 mph N/A   Overcast
1:22 AM 62.6 °F 57.2 °F 82% 30.14 in 10.0 mi SE 8.1 mph - N/A   Overcast
1:52 AM 62.1 °F 57.9 °F 86% 30.14 in 10.0 mi SE 8.1 mph - N/A   Overcast
2:52 AM 62.1 °F 57.9 °F 86% 30.12 in 10.0 mi Variable 6.9 mph 18.4 mph N/A   Overcast
3:52 AM 62.1 °F 59.0 °F 90% 30.11 in 10.0 mi SSE 10.4 mph 18.4 mph N/A   Overcast
4:26 AM 62.6 °F 60.8 °F 94% 30.10 in 10.0 mi SSE 11.5 mph 20.7 mph N/A   Overcast
4:52 AM 63.0 °F 60.1 °F 90% 30.10 in 10.0 mi SE 8.1 mph 17.3 mph N/A   Overcast
5:11 AM 62.6 °F 60.8 °F 94% 30.10 in 10.0 mi SSE 9.2 mph 20.7 mph N/A   Overcast
5:26 AM 62.6 °F 60.8 °F 94% 30.10 in 10.0 mi SE 11.5 mph 18.4 mph N/A   Overcast
5:52 AM 63.0 °F 60.1 °F 90% 30.10 in 9.0 mi SSE 9.2 mph 20.7 mph N/A   Overcast
6:33 AM 62.6 °F 60.8 °F 94% 30.09 in 7.0 mi SSE 11.5 mph 16.1 mph N/A   Overcast
6:52 AM 62.1 °F 60.1 °F 93% 30.10 in 7.0 mi SSE 6.9 mph 17.3 mph N/A   Overcast
7:52 AM 63.0 °F 61.0 °F 93% 30.10 in 5.0 mi SSE 6.9 mph - N/A   Overcast
8:52 AM 64.9 °F 62.1 °F 90% 30.09 in 7.0 mi SSE 9.2 mph 16.1 mph N/A   Overcast
9:52 AM 64.9 °F 62.1 °F 90% 30.08 in 7.0 mi SSE 9.2 mph 18.4 mph N/A   Overcast
10:52 AM 66.9 °F 62.1 °F 84% 30.07 in 8.0 mi SSE 11.5 mph 23.0 mph N/A   Overcast
11:52 AM 66.9 °F 63.0 °F 87% 30.05 in 6.0 mi SSE 10.4 mph 18.4 mph N/A   Overcast
12:52 PM 69.1 °F 64.0 °F 84% 30.02 in 7.0 mi South 9.2 mph 17.3 mph N/A   Overcast
1:52 PM 71.1 °F 64.0 °F 78% 29.99 in 8.0 mi South 8.1 mph 21.9 mph N/A   Mostly Cloudy
2:02 PM 69.8 °F 64.4 °F 83% 29.98 in 7.0 mi South 11.5 mph 21.9 mph N/A   Mostly Cloudy
2:52 PM 70.0 °F 64.0 °F 81% 29.98 in 7.0 mi South 13.8 mph 23.0 mph N/A   Mostly Cloudy
3:11 PM 71.6 °F 64.4 °F 78% 29.96 in 9.0 mi South 11.5 mph 24.2 mph N/A   Scattered Clouds
3:52 PM 72.0 °F 63.0 °F 73% 29.96 in 10.0 mi South 9.2 mph 18.4 mph N/A   Mostly Cloudy
4:52 PM 68.0 °F 63.0 °F 84% 29.96 in 10.0 mi SSE 11.5 mph 20.7 mph N/A   Clear
5:52 PM 66.9 °F 64.0 °F 90% 29.96 in 6.0 mi South 11.5 mph 21.9 mph N/A   Scattered Clouds
6:52 PM 64.9 °F 63.0 °F 93% 29.96 in 6.0 mi South 9.2 mph 18.4 mph N/A   Scattered Clouds
7:52 PM 66.0 °F 63.0 °F 90% 29.95 in 7.0 mi South 9.2 mph 18.4 mph N/A   Mostly Cloudy
8:52 PM 66.0 °F 63.0 °F 90% 29.94 in 6.0 mi South 10.4 mph 16.1 mph N/A   Overcast
9:04 PM 64.4 °F 64.4 °F 100% 29.93 in 3.0 mi South 8.1 mph - 0.05 in Rain Light Rain
9:13 PM 64.4 °F 64.4 °F 100% 29.92 in 4.0 mi South 8.1 mph - 0.05 in   Overcast
9:23 PM 66.2 °F 64.4 °F 94% 29.92 in 4.0 mi South 8.1 mph - 0.05 in   Overcast
9:52 PM 66.9 °F 64.9 °F 93% 29.92 in 5.0 mi SSW 10.4 mph 18.4 mph 0.05 in   Overcast
10:11 PM 66.2 °F 64.4 °F 94% 29.91 in 4.0 mi South 10.4 mph 20.7 mph 0.03 in Rain Rain
10:21 PM 66.2 °F 64.4 °F 94% 29.91 in 3.0 mi South 9.2 mph 18.4 mph 0.04 in Rain Light Rain
10:52 PM 66.0 °F 64.0 °F 93% 29.91 in 6.0 mi South 15.0 mph 24.2 mph 0.05 in Rain Light Rain
11:06 PM 64.4 °F 62.6 °F 94% 29.91 in 5.0 mi South 10.4 mph 18.4 mph 0.00 in Rain Light Rain
11:52 PM 64.0 °F 62.1 °F 93% 29.90 in 7.0 mi South 8.1 mph - 0.00 in   Overcast